Time,TemperatureF,DewpointF,PressureIn,WindDirection,WindDirectionDegrees,WindSpeedMPH,WindSpeedGustMPH,Humidity,HourlyPrecipIn,Conditions,Clouds,dailyrainin,SoftwareType,DateUTC
2013-01-30 00:13:00,47.6,41.0,30.29,WNW,288,0.0,-999.0,79,-99.99,,,0.00,weatherlink.com 1.10,2013-01-30 08:13:00,
2013-01-30 00:28:00,46.7,41.0,30.29,WNW,288,0.0,-999.0,81,-99.99,,,0.00,weatherlink.com 1.10,2013-01-30 08:28:00,
2013-01-30 00:43:00,46.4,41.0,30.29,WNW,288,0.0,-999.0,82,-99.99,,,0.00,weatherlink.com 1.10,2013-01-30 08:43:00,
2013-01-30 00:58:00,46.4,42.0,30.29,WNW,288,0.0,-999.0,83,-99.99,,,0.00,weatherlink.com 1.10,2013-01-30 08:58:00,
2013-01-30 01:13:00,45.8,41.0,30.29,WNW,288,0.0,-999.0,83,-99.99,,,0.00,weatherlink.com 1.10,2013-01-30 09:13:00,
2013-01-30 01:28:00,45.2,41.0,30.29,WNW,288,0.0,-999.0,84,-99.99,,,0.00,weatherlink.com 1.10,2013-01-30 09:28:00,
2013-01-30 01:43:00,45.1,41.0,30.29,WNW,288,0.0,-999.0,85,-99.99,,,0.00,weatherlink.com 1.10,2013-01-30 09:43:00,
2013-01-30 01:58:00,44.9,41.0,30.28,WNW,288,0.0,-999.0,85,-99.99,,,0.00,weatherlink.com 1.10,2013-01-30 09:58:00,
2013-01-30 02:13:00,44.8,41.0,30.28,WNW,288,0.0,-999.0,86,-99.99,,,0.00,weatherlink.com 1.10,2013-01-30 10:13:00,
2013-01-30 02:28:00,44.6,41.0,30.28,WNW,288,0.0,-999.0,86,-99.99,,,0.00,weatherlink.com 1.10,2013-01-30 10:28:00,
2013-01-30 02:43:00,44.5,41.0,30.28,WNW,288,0.0,-999.0,86,-99.99,,,0.00,weatherlink.com 1.10,2013-01-30 10:43:00,
2013-01-30 02:58:00,44.2,40.0,30.28,WNW,288,0.0,-999.0,86,-99.99,,,0.00,weatherlink.com 1.10,2013-01-30 10:58:00,
2013-01-30 03:14:00,43.9,40.0,30.27,WNW,288,0.0,-999.0,87,-99.99,,,0.00,weatherlink.com 1.10,2013-01-30 11:14:00,
2013-01-30 03:28:00,43.9,40.0,30.27,WNW,288,0.0,-999.0,87,-99.99,,,0.00,weatherlink.com 1.10,2013-01-30 11:28:00,
2013-01-30 03:44:00,44.3,41.0,30.26,WNW,288,0.0,-999.0,87,-99.99,,,0.00,weatherlink.com 1.10,2013-01-30 11:44:00,
2013-01-30 03:58:00,44.2,41.0,30.27,WNW,288,0.0,-999.0,87,-99.99,,,0.00,weatherlink.com 1.10,2013-01-30 11:58:00,
2013-01-30 04:13:00,44.2,41.0,30.26,WNW,288,0.0,-999.0,87,-99.99,,,0.00,weatherlink.com 1.10,2013-01-30 12:13:00,
2013-01-30 04:43:00,43.6,40.0,30.26,WNW,288,0.0,-999.0,87,-99.99,,,0.00,weatherlink.com 1.10,2013-01-30 12:43:00,
2013-01-30 04:59:00,43.2,40.0,30.26,WNW,288,0.0,-999.0,87,-99.99,,,0.00,weatherlink.com 1.10,2013-01-30 12:59:00,
2013-01-30 05:14:00,43.5,41.0,30.26,WNW,288,0.0,-999.0,89,-99.99,,,0.00,weatherlink.com 1.10,2013-01-30 13:14:00,
2013-01-30 05:29:00,44.2,41.0,30.27,WNW,294,0.0,-999.0,89,-99.99,,,0.00,weatherlink.com 1.10,2013-01-30 13:29:00,
2013-01-30 05:43:00,43.6,40.0,30.27,WNW,294,0.0,-999.0,88,-99.99,,,0.00,weatherlink.com 1.10,2013-01-30 13:43:00,
2013-01-30 05:59:00,43.1,40.0,30.28,WNW,294,0.0,-999.0,88,-99.99,,,0.00,weatherlink.com 1.10,2013-01-30 13:59:00,
2013-01-30 06:13:00,43.5,41.0,30.28,WNW,294,0.0,-999.0,89,-99.99,,,0.00,weatherlink.com 1.10,2013-01-30 14:13:00,
2013-01-30 06:29:00,43.1,40.0,30.29,WNW,294,0.0,-999.0,88,-99.99,,,0.00,weatherlink.com 1.10,2013-01-30 14:29:00,
2013-01-30 06:43:00,42.8,40.0,30.29,WNW,294,0.0,-999.0,88,-99.99,,,0.00,weatherlink.com 1.10,2013-01-30 14:43:00,
2013-01-30 06:59:00,42.6,40.0,30.30,WNW,294,0.0,-999.0,89,-99.99,,,0.00,weatherlink.com 1.10,2013-01-30 14:59:00,
2013-01-30 07:14:00,42.3,39.0,30.31,WNW,294,0.0,-999.0,89,-99.99,,,0.00,weatherlink.com 1.10,2013-01-30 15:14:00,
2013-01-30 07:29:00,42.8,40.0,30.31,WNW,294,0.0,-999.0,90,-99.99,,,0.00,weatherlink.com 1.10,2013-01-30 15:29:00,
2013-01-30 07:44:00,42.8,40.0,30.31,WNW,294,0.0,-999.0,90,-99.99,,,0.00,weatherlink.com 1.10,2013-01-30 15:44:00,
2013-01-30 07:59:00,43.2,41.0,30.31,WNW,294,0.0,-999.0,91,-99.99,,,0.00,weatherlink.com 1.10,2013-01-30 15:59:00,
2013-01-30 08:14:00,43.6,41.0,30.32,WNW,294,0.0,-999.0,91,-99.99,,,0.00,weatherlink.com 1.10,2013-01-30 16:14:00,
2013-01-30 08:29:00,44.5,42.0,30.32,WNW,294,0.0,-999.0,90,-99.99,,,0.00,weatherlink.com 1.10,2013-01-30 16:29:00,
2013-01-30 08:44:00,45.5,43.0,30.32,WNW,294,0.0,-999.0,92,-99.99,,,0.00,weatherlink.com 1.10,2013-01-30 16:44:00,
2013-01-30 08:59:00,47.6,45.0,30.33,WNW,294,0.0,-999.0,91,-99.99,,,0.00,weatherlink.com 1.10,2013-01-30 16:59:00,
2013-01-30 09:14:00,49.5,46.0,30.33,WNW,294,0.0,-999.0,86,-99.99,,,0.00,weatherlink.com 1.10,2013-01-30 17:14:00,
2013-01-30 09:29:00,52.6,45.0,30.33,WNW,294,0.0,-999.0,74,-99.99,,,0.00,weatherlink.com 1.10,2013-01-30 17:29:00,
2013-01-30 09:44:00,54.8,44.0,30.34,WNW,294,0.0,-999.0,68,-99.99,,,0.00,weatherlink.com 1.10,2013-01-30 17:44:00,
2013-01-30 09:59:00,56.5,44.0,30.34,WNW,294,0.0,-999.0,63,-99.99,,,0.00,weatherlink.com 1.10,2013-01-30 17:59:00,
2013-01-30 10:14:00,57.8,43.0,30.34,WNW,294,0.0,-999.0,58,-99.99,,,0.00,weatherlink.com 1.10,2013-01-30 18:14:00,
2013-01-30 10:29:00,58.6,43.0,30.34,WNW,294,0.0,-999.0,56,-99.99,,,0.00,weatherlink.com 1.10,2013-01-30 18:29:00,
2013-01-30 10:44:00,60.2,44.0,30.34,WNW,294,0.0,-999.0,56,-99.99,,,0.00,weatherlink.com 1.10,2013-01-30 18:44:00,
2013-01-30 10:59:00,61.0,45.0,30.34,WNW,290,0.0,-999.0,56,-99.99,,,0.00,weatherlink.com 1.10,2013-01-30 18:59:00,
2013-01-30 11:14:00,61.8,44.0,30.33,West,273,0.0,-999.0,53,-99.99,,,0.00,weatherlink.com 1.10,2013-01-30 19:14:00,
2013-01-30 11:29:00,62.0,43.0,30.32,SW,229,0.0,-999.0,50,-99.99,,,0.00,weatherlink.com 1.10,2013-01-30 19:29:00,
2013-01-30 11:45:00,61.8,44.0,30.32,SW,236,0.0,-999.0,52,-99.99,,,0.00,weatherlink.com 1.10,2013-01-30 19:45:00,
2013-01-30 11:59:00,61.8,42.0,30.31,WSW,257,0.0,-999.0,48,-99.99,,,0.00,weatherlink.com 1.10,2013-01-30 19:59:00,
2013-01-30 12:15:00,62.3,42.0,30.31,WSW,248,0.0,-999.0,48,-99.99,,,0.00,weatherlink.com 1.10,2013-01-30 20:15:00,
2013-01-30 12:30:00,62.7,41.0,30.30,West,270,0.0,-999.0,45,-99.99,,,0.00,weatherlink.com 1.10,2013-01-30 20:30:00,
2013-01-30 12:44:00,63.2,41.0,30.30,South,184,0.0,-999.0,45,-99.99,,,0.00,weatherlink.com 1.10,2013-01-30 20:44:00,
2013-01-30 13:00:00,63.9,41.0,30.29,SW,230,0.0,-999.0,43,-99.99,,,0.00,weatherlink.com 1.10,2013-01-30 21:00:00,
2013-01-30 13:15:00,64.7,41.0,30.29,NW,311,0.0,-999.0,42,-99.99,,,0.00,weatherlink.com 1.10,2013-01-30 21:15:00,
2013-01-30 13:45:00,65.6,40.0,30.28,West,276,0.0,-999.0,39,-99.99,,,0.00,weatherlink.com 1.10,2013-01-30 21:45:00,
2013-01-30 14:00:00,65.6,42.0,30.28,SSW,207,0.0,-999.0,42,-99.99,,,0.00,weatherlink.com 1.10,2013-01-30 22:00:00,
2013-01-30 14:15:00,66.1,44.0,30.27,WSW,253,0.0,-999.0,45,-99.99,,,0.00,weatherlink.com 1.10,2013-01-30 22:15:00,
2013-01-30 14:30:00,65.6,45.0,30.28,WSW,253,0.0,-999.0,48,-99.99,,,0.00,weatherlink.com 1.10,2013-01-30 22:30:00,
2013-01-30 14:45:00,65.2,45.0,30.27,WSW,254,0.0,-999.0,49,-99.99,,,0.00,weatherlink.com 1.10,2013-01-30 22:45:00,
2013-01-30 15:01:00,64.8,45.0,30.27,NW,304,0.0,-999.0,49,-99.99,,,0.00,weatherlink.com 1.10,2013-01-30 23:01:00,
2013-01-30 15:31:00,64.2,44.0,30.27,WNW,292,0.0,-999.0,48,-99.99,,,0.00,weatherlink.com 1.10,2013-01-30 23:31:00,
2013-01-30 15:45:00,64.3,45.0,30.27,West,266,0.0,-999.0,49,-99.99,,,0.00,weatherlink.com 1.10,2013-01-30 23:45:00,
2013-01-30 16:01:00,62.7,44.0,30.27,West,266,0.0,-999.0,50,-99.99,,,0.00,weatherlink.com 1.10,2013-01-31 00:01:00,
2013-01-30 16:16:00,62.3,44.0,30.27,WSW,258,0.0,-999.0,52,-99.99,,,0.00,weatherlink.com 1.10,2013-01-31 00:16:00,
2013-01-30 16:31:00,61.0,44.0,30.28,WSW,258,0.0,-999.0,54,-99.99,,,0.00,weatherlink.com 1.10,2013-01-31 00:31:00,
2013-01-30 16:46:00,60.4,43.0,30.27,WSW,258,0.0,-999.0,54,-99.99,,,0.00,weatherlink.com 1.10,2013-01-31 00:46:00,
2013-01-30 17:01:00,59.2,43.0,30.27,WSW,258,0.0,-999.0,56,-99.99,,,0.00,weatherlink.com 1.10,2013-01-31 01:01:00,
2013-01-30 17:16:00,57.5,43.0,30.27,WSW,258,0.0,-999.0,59,-99.99,,,0.00,weatherlink.com 1.10,2013-01-31 01:16:00,
2013-01-30 17:31:00,56.5,43.0,30.27,WSW,258,0.0,-999.0,61,-99.99,,,0.00,weatherlink.com 1.10,2013-01-31 01:31:00,
2013-01-30 17:46:00,55.1,43.0,30.27,WSW,258,0.0,-999.0,65,-99.99,,,0.00,weatherlink.com 1.10,2013-01-31 01:46:00,
2013-01-30 18:01:00,53.8,43.0,30.27,WSW,258,0.0,-999.0,68,-99.99,,,0.00,weatherlink.com 1.10,2013-01-31 02:01:00,
2013-01-30 18:16:00,52.8,43.0,30.27,WSW,258,0.0,-999.0,70,-99.99,,,0.00,weatherlink.com 1.10,2013-01-31 02:16:00,
2013-01-30 18:31:00,51.9,43.0,30.26,WSW,258,0.0,-999.0,72,-99.99,,,0.00,weatherlink.com 1.10,2013-01-31 02:31:00,
2013-01-30 18:46:00,51.1,43.0,30.26,WSW,258,0.0,-999.0,73,-99.99,,,0.00,weatherlink.com 1.10,2013-01-31 02:46:00,
2013-01-30 19:02:00,50.4,43.0,30.27,WSW,258,0.0,-999.0,75,-99.99,,,0.00,weatherlink.com 1.10,2013-01-31 03:02:00,
2013-01-30 19:16:00,49.8,42.0,30.27,WSW,258,0.0,-999.0,75,-99.99,,,0.00,weatherlink.com 1.10,2013-01-31 03:16:00,
2013-01-30 19:31:00,49.4,42.0,30.27,WSW,258,0.0,-999.0,77,-99.99,,,0.00,weatherlink.com 1.10,2013-01-31 03:31:00,
2013-01-30 19:47:00,48.8,43.0,30.27,WSW,258,0.0,-999.0,79,-99.99,,,0.00,weatherlink.com 1.10,2013-01-31 03:47:00,
2013-01-30 20:01:00,48.3,43.0,30.27,WSW,258,0.0,-999.0,81,-99.99,,,0.00,weatherlink.com 1.10,2013-01-31 04:01:00,
2013-01-30 20:16:00,48.2,43.0,30.27,WSW,258,0.0,-999.0,83,-99.99,,,0.00,weatherlink.com 1.10,2013-01-31 04:16:00,
2013-01-30 20:31:00,47.9,43.0,30.26,WSW,258,0.0,-999.0,83,-99.99,,,0.00,weatherlink.com 1.10,2013-01-31 04:31:00,
2013-01-30 20:46:00,47.4,43.0,30.26,WSW,258,0.0,-999.0,84,-99.99,,,0.00,weatherlink.com 1.10,2013-01-31 04:46:00,
2013-01-30 21:16:00,47.0,43.0,30.27,WSW,258,0.0,-999.0,85,-99.99,,,0.00,weatherlink.com 1.10,2013-01-31 05:16:00,
2013-01-30 21:31:00,47.0,43.0,30.27,WSW,258,0.0,-999.0,86,-99.99,,,0.00,weatherlink.com 1.10,2013-01-31 05:31:00,
2013-01-30 21:47:00,47.0,43.0,30.27,WSW,258,0.0,-999.0,86,-99.99,,,0.00,weatherlink.com 1.10,2013-01-31 05:47:00,
2013-01-30 22:02:00,46.7,43.0,30.26,WSW,258,0.0,-999.0,86,-99.99,,,0.00,weatherlink.com 1.10,2013-01-31 06:02:00,
2013-01-30 22:17:00,46.5,43.0,30.26,WSW,258,0.0,-999.0,86,-99.99,,,0.00,weatherlink.com 1.10,2013-01-31 06:17:00,
2013-01-30 22:32:00,46.2,42.0,30.26,WSW,258,0.0,-999.0,86,-99.99,,,0.00,weatherlink.com 1.10,2013-01-31 06:32:00,
2013-01-30 22:47:00,46.4,43.0,30.26,WSW,258,0.0,-999.0,87,-99.99,,,0.00,weatherlink.com 1.10,2013-01-31 06:47:00,
2013-01-30 23:02:00,46.2,43.0,30.26,WSW,258,0.0,-999.0,87,-99.99,,,0.00,weatherlink.com 1.10,2013-01-31 07:02:00,
2013-01-30 23:17:00,45.8,42.0,30.26,WSW,258,0.0,-999.0,87,-99.99,,,0.00,weatherlink.com 1.10,2013-01-31 07:17:00,
2013-01-30 23:32:00,45.7,42.0,30.27,WSW,258,0.0,-999.0,87,-99.99,,,0.00,weatherlink.com 1.10,2013-01-31 07:32:00,
2013-01-30 23:47:00,45.4,42.0,30.27,WSW,258,0.0,-999.0,87,-99.99,,,0.00,weatherlink.com 1.10,2013-01-31 07:47:00,